Regional Weather Roundup
Issued by NWS

Home | Current Version | Previous Version | Text Only | Print | Product List | Glossary On
Versions: 1 2 3 4 5 6 7 8 9 10 11 12 13 14 15 16 17 18 19 20 21 22 23 24 25 26 27 28 29 30 31 32 33 34 35 36 37 38 39 40 41 42 43 44 45 46 47 48 49 50
000
ASUS44 KFWD 211415
RWRTX
NORTH TEXAS HOURLY WEATHER ROUNDUP
NATIONAL WEATHER SERVICE FORT WORTH TX
900 AM CDT MON AUG 21 2017

NOTE: "FAIR" INDICATES FEW OR NO CLOUDS BELOW 12,000 FEET WITH NO
SIGNIFICANT WEATHER AND/OR OBSTRUCTIONS TO VISIBILITY.

TXZ118-119-211500-
DALLAS/FORT WORTH METROPLEX

CITY           SKY/WX    TMP DP  RH WIND       PRES   REMARKS
DFW AIRPORT    SUNNY     85  71  63 S8        30.06R HX  90
DALLAS LOVE    SUNNY     83  72  69 S8        30.07R
FTW MEACHAM    SUNNY     84  72  67 S9        30.07R
DAL-EXECUTIVE  SUNNY     82  74  76 S6        30.08R
FTW-ALLIANCE   SUNNY     84  70  62 SW8       30.07R
FTW-NAS-JRB    SUNNY     84  69  60 S9        30.07R
FTW-SPINKS     SUNNY     82  70  65 S10       30.09
ARLINGTON      SUNNY     82  73  74 S8        30.07R
GRAND PRAIRIE  SUNNY     82  70  65 S6        30.09R
ADDISON        SUNNY     82  70  65 S9        30.08R
MESQUITE       SUNNY     81  73  78 SE6       30.09R
LANCASTER      SUNNY     80  73  79 S5        30.09R
$$

TXZ091>094-102>105-117-120-121-131>134-211500-
NORTH CENTRAL TEXAS

CITY           SKY/WX    TMP DP  RH WIND       PRES   REMARKS
SHRMAN/DENISON SUNNY     82  72  72 S13       30.09R
GAINESVILLE    SUNNY     81  71  72 S7        30.10S
BOWIE          SUNNY     79  70  73 S8        30.09R
BRIDGEPORT     SUNNY     81  69  66 S6        30.10R
DECATUR        SUNNY     81  69  67 S9          N/A
DENTON         SUNNY     83  72  69 S7        30.07R
MCKINNEY       SUNNY     81  76  84 S7        30.08R
BONHAM         SUNNY     81  73  78 S7        30.10R
GREENVILLE     SUNNY     84  77  79 S7        30.10R HX  94
ROCKWALL       SUNNY     81  75  83 SW8       30.09R
TERRELL        SUNNY     82  74  76 S7        30.09R
WAXAHACHIE     SUNNY     80  74  82 S7        30.10R
CLEBURNE       SUNNY     81  75  83 S9        30.10R
GRANBURY       SUNNY     83  69  62 S6        30.09R
$$

TXZ083>090-098>101-113>116-127>130-139>142-154-155-211500-
WESTERN NORTH TEXAS

CITY           SKY/WX    TMP DP  RH WIND       PRES   REMARKS
WICHITA FALLS  MOSUNNY   81  68  64 SW14      30.06R
WF-KICKAPOO    SUNNY     82  70  67 S8        30.09R
VERNON         SUNNY     80  63  55 S10       30.07R
ABILENE        SUNNY     79  65  62 S14       30.11R
ABILENE-DYESS  MOSUNNY   81  65  58 S13       30.08S
GRAHAM         SUNNY     81  69  67 S5        30.07R
BRECKENRIDGE   SUNNY     81  67  62 S8        30.08S
CISCO          SUNNY     77  68  73 S9G15     30.11R
EASTLAND       SUNNY     78  69  73 S6        30.10S
RANGER         SUNNY     76  68  75 S6        30.11R
MINERAL WELLS  SUNNY     80  69  69 SE6       30.08R
STEPHENVILLE   SUNNY     76  68  75 S5        30.13R
COMANCHE       SUNNY     81  67  63 S13       30.10S
BROWNWOOD      SUNNY     79  66  65 S6        30.11R
COLEMAN        SUNNY     78  64  62 S8        30.11R
$$

TXZ143>147-156>162-174-175-211500-
CENTRAL TEXAS

CITY           SKY/WX    TMP DP  RH WIND       PRES   REMARKS
WACO           SUNNY     82  74  76 S12       30.08R
WACO-TSTC      SUNNY     82  73  74 S8        30.08R
WACO-MCGREGOR  SUNNY     83  74  74 S9        30.08S
HILLSBORO      SUNNY     82  74  78 S8        30.09R
CORSICANA      SUNNY     83  75  77 S7        30.10R HX  90
MEXIA          SUNNY     81  73  77 S8        30.09R
HEARNE         SUNNY     81  76  85 CALM      30.10R
CAMERON        SUNNY     81  75  82 CALM      30.09R
TEMPLE         SUNNY     81  74  79 S10       30.10R
KILLEEN        SUNNY     80  73  79 S12       30.09R
KILLEEN-SKYLRK SUNNY     81  74  79 S7        30.10R
FORT HOOD      MOSUNNY   79  72  81 S10       30.07R
HAMILTON       SUNNY     81  68  64 SW13G18   30.11R
LAMPASAS       SUNNY     81  73  78 SW8       30.09R
$$

TXZ095>097-106>112-122>126-135>138-148>153-164>167-211500-
EAST TEXAS

CITY           SKY/WX    TMP DP  RH WIND       PRES   REMARKS
PARIS          SUNNY     82  75  79 SE6       30.12R
SULPHUR SPRNGS SUNNY     82  74  78 S6        30.13R
MOUNT PLEASANT SUNNY     79  76  91 S5        30.12S
GILMER         SUNNY     79  75  85 CALM      30.11S
MINEOLA        SUNNY     81  75  83 S5        30.11R
TYLER          SUNNY     80  76  87 S6        30.11R
LONGVIEW       SUNNY     82  77  84 S5        30.10R HX  90
MARSHALL         N/A     78  73  84 CALM      30.13R
ATHENS         SUNNY     79  75  89 S5        30.09S
PALESTINE      MOSUNNY   81  76  86 S3        30.11R
JACKSONVILLE   SUNNY     79  76  91 CALM      30.13S
HENDERSON      SUNNY     80  76  85 CALM      30.12S
CENTER         SUNNY     83  80  88 CALM      30.11S FOG     HX  96
NACOGDOCHES    SUNNY     82  77  84 SE5       30.10S HX  90
LUFKIN         SUNNY     82  76  81 CALM      30.09R
$$

SUPPLEMENTAL OBSERVATIONS (NWS FORT WORTH AREA)

CITY           SKY/WX    TMP DP  RH WIND       PRES   REMARKS
DENISON DAM      N/A     82  70  65 SW3         N/A
CADDO GRASSLND   N/A     82  75  78 S6          N/A
PAT MAYSE LAKE   N/A     81  77  89 E1          N/A
GREENVILLE       N/A     82  73  74 S6          N/A
CEDAR HILL       N/A     82  70  65 S5          N/A
LBJ GRASSLAND    N/A     82  70  65 S6          N/A
MCGREGOR         N/A     82  72  69 S8G16       N/A
ATHENS           N/A     82  77  83 S7          N/A  HX  91
$$

SUPPLEMENTAL OBSERVATIONS (NWS NORMAN AREA)

CITY           SKY/WX    TMP DP  RH WIND       PRES   REMARKS
GOODLETT         N/A     77  66  69 SW7       30.07S
ODELL            N/A     82  68  62 S13       30.07S
CROWELL          N/A     82  67  62 S9        30.09R
KNOX CITY        N/A     81  65  56 S6        30.09R
SEYMOUR          N/A     81  66  60 S9        30.08S
MILLERS CREEK    N/A     81  70  69 S5          N/A
$$

SUPPLEMENTAL OBSERVATIONS (NWS SAN ANGELO AREA)

CITY           SKY/WX    TMP DP  RH WIND       PRES   REMARKS
WEINERT          N/A     81  67  61 S6        30.09S
HASKELL          N/A     80  64  58 S9        30.09R
THROCKMORTON     N/A     80  68  68 S9        30.10R
STAMFORD         N/A     82  65  55 SW12      30.10R
CLYDE            N/A     79  66  64 S13G20    30.13R
HAMBY            N/A     82  64  54 S14         N/A
$$

SUPPLEMENTAL OBSERVATIONS (NWS SHREVEPORT AREA)

CITY           SKY/WX    TMP DP  RH WIND       PRES   REMARKS
CLARKSVILLE      N/A     81  73  78 S6          N/A
CADDO LAKE       N/A     86  77  74 CALM        N/A  HX  97
GILMER           N/A     82  77  83 S2          N/A  HX  91
HENDERSON        N/A     82  81  94 SW3         N/A  HX  95
LUFKIN           N/A     82  79  89 MISG        N/A  HX  93
N SABINE NF      N/A     79  77  94 MISG        N/A
S SABINE NF      N/A     84  79  84 E3          N/A  HX  96
$$

SUPPLEMENTAL OBSERVATIONS ARE A COLLECTION OF AUTOMATED INSTRUMENTS
THAT ARE MAINTAINED BY A VARIETY OF FEDERAL AND STATE AGENCIES.
CERTAIN ELEMENTS...SUCH AS HUMIDITY VALUES AND SUSTAINED WIND
SPEEDS...MAY BE APPROXIMATED.





USA.gov is the U.S. government's official web portal to all federal, state and local government web resources and services.